K0SNA Weather Reports


Display with metric or nautical units.
time (UTC)temp
F
wind
direction
speed
MPH
gust
MPH
rain 1hr
in
rain 24hr
in
rain mn
in
humidity
%
barometer
mb
20260902172255 80 150 2.0 2.0 0.00 0.07 0.07 65 1013.2
20260902171750 81 169 3.0 3.0 0.00 0.07 0.07 64 1013.7
20260902171245 80 185 0.0 1.0 0.00 0.07 0.07 67 1013.5
20260902170742 78 206 0.0 1.0 0.00 0.07 0.07 68 1014.0
20260902170237 79 191 3.0 3.0 0.00 0.07 0.07 67 1014.0
20260902165732 79 181 1.0 2.0 0.00 0.07 0.07 68 1013.8
20260902165226 78 211 1.0 2.0 0.00 0.07 0.07 69 1014.0
20260902164726 79 218 2.0 2.0 0.00 0.07 0.07 68 1013.4
20260902164221 77 180 0.0 1.0 0.00 0.07 0.07 70 1013.4
20260902163716 77 138 1.0 1.0 0.00 0.07 0.07 71 1013.3
20260902163216 78 141 0.0 2.0 0.00 0.07 0.07 69 1013.5
20260902162714 78 167 1.0 3.0 0.00 0.07 0.07 70 1013.4
20260902162209 78 185 0.0 1.0 0.00 0.07 0.07 69 1013.5
20260902161704 77 178 1.0 2.0 0.00 0.07 0.07 70 1013.5
20260902161159 77 165 0.0 0.0 0.00 0.07 0.07 70 1013.4
20260902160656 77 197 2.0 2.0 0.00 0.07 0.07 69 1013.4
20260902160150 79 115 2.0 5.0 0.00 0.07 0.07 67 1013.5
20260902155649 77 175 0.0 1.0 0.00 0.07 0.07 68 1013.3
20260902155148 77 167 1.0 2.0 0.00 0.07 0.07 70 1013.3
20260902154643 78 192 3.0 5.0 0.00 0.07 0.07 68 1013.2
20260902154137 77 170 1.0 2.0 0.00 0.07 0.07 68 1013.1
20260902153637 77 186 2.0 3.0 0.00 0.07 0.07 70 1013.2
20260902153132 76 190 1.0 2.0 0.00 0.07 0.07 71 1013.1
20260902152628 75 167 1.0 2.0 0.00 0.07 0.07 73 1013.2
20260902152123 75 172 0.0 2.0 0.00 0.07 0.07 74 1013.0
20260902151619 75 82 2.0 6.0 0.00 0.07 0.07 73 1013.1
20260902151118 75 170 1.0 2.0 0.00 0.07 0.07 74 1013.1
20260902150614 74 157 3.0 5.0 0.00 0.07 0.07 74 1013.2
20260902150109 75 193 1.0 2.0 0.00 0.07 0.07 73 1013.2
20260902145604 74 161 1.0 5.0 0.00 0.07 0.07 74 1012.9
20260902145104 74 158 2.0 2.0 0.00 0.07 0.07 75 1013.0
20260902144600 72 156 2.0 5.0 0.00 0.07 0.07 77 1013.2
20260902144054 72 121 1.0 2.0 0.00 0.07 0.07 77 1013.0
20260902143544 72 133 1.0 3.0 0.00 0.07 0.07 78 1013.1
20260902143039 73 160 2.0 2.0 0.00 0.07 0.07 76 1013.2
20260902142535 72 156 0.0 1.0 0.00 0.07 0.07 79 1013.4
20260902142030 71 170 0.0 0.0 0.00 0.07 0.07 80 1013.7
20260902141530 71 135 1.0 3.0 0.00 0.07 0.07 80 1013.5
20260902141025 71 151 1.0 2.0 0.00 0.07 0.07 80 1013.4
20260902140519 69 107 2.0 2.0 0.00 0.07 0.07 82 1013.4
20260902140015 69 149 1.0 3.0 0.00 0.07 0.07 83 1013.5
20260902135509 69 103 3.0 5.0 0.00 0.07 0.07 84 1013.7
20260902135004 69 151 1.0 1.0 0.00 0.07 0.07 84 1013.3
20260902134500 68 167 1.0 2.0 0.00 0.07 0.07 85 1013.4
20260902133959 68 168 1.0 2.0 0.00 0.07 0.07 86 1013.3
20260902133454 68 147 0.0 2.0 0.00 0.07 0.07 87 1013.3
20260902132949 67 102 1.0 1.0 0.00 0.07 0.07 87 1013.5
20260902132444 68 154 1.0 1.0 0.00 0.07 0.07 86 1013.8
20260902131939 68 130 1.0 2.0 0.00 0.07 0.07 86 1013.5
20260902131436 68 156 1.0 2.0 0.00 0.07 0.07 85 1013.4
20260902130936 68 162 0.0 0.0 0.00 0.07 0.07 86 1013.5
20260902130432 68 138 1.0 2.0 0.00 0.07 0.07 86 1013.3
20260902125931 68 125 2.0 2.0 0.00 0.07 0.07 86 1013.3
20260902125427 67 157 0.0 2.0 0.00 0.07 0.07 89 1013.2
20260902124923 66 168 0.0 1.0 0.00 0.07 0.07 91 1013.2
20260902124419 66 166 0.0 0.0 0.00 0.07 0.07 92 1013.5
20260902123915 66 182 0.0 0.0 0.00 0.07 0.07 92 1013.5
20260902123411 65 188 0.0 0.0 0.00 0.07 0.07 93 1013.4
20260902122909 65 181 0.0 0.0 0.00 0.07 0.07 93 1013.1
20260902122405 65 173 0.0 0.0 0.00 0.07 0.07 93 1013.1
20260902121900 65 167 0.0 0.0 0.00 0.07 0.07 94 1013.3
20260902121355 65 165 0.0 1.0 0.00 0.07 0.07 94 1013.1
20260902120850 64 168 1.0 1.0 0.00 0.07 0.07 94 1013.3
20260902120347 64 176 0.0 0.0 0.00 0.07 0.07 94 1013.2
20260902115845 64 178 0.0 0.0 0.00 0.07 0.07 94 1013.4
20260902115342 64 182 0.0 0.0 0.00 0.07 0.07 94 1013.5
20260902114838 64 181 0.0 0.0 0.00 0.07 0.07 94 1013.4
20260902114334 64 201 0.0 0.0 0.00 0.07 0.07 94 1013.2
20260902113834 64 203 0.0 0.0 0.00 0.07 0.07 94 1013.2
20260902113330 64 179 0.0 0.0 0.00 0.07 0.07 93 1013.2
20260902112829 64 177 0.0 0.0 0.00 0.07 0.07 93 1013.4
20260902112326 64 181 0.0 0.0 0.00 0.07 0.07 93 1013.4
20260902111821 64 184 0.0 1.0 0.00 0.07 0.07 93 1013.8
20260902111318 64 165 0.0 0.0 0.00 0.07 0.07 93 1014.2
20260902110813 64 188 0.0 0.0 0.00 0.07 0.07 93 1014.3
20260902110309 64 188 0.0 0.0 0.00 0.07 0.07 92 1014.1
20260902105808 65 187 0.0 0.0 0.00 0.07 0.07 92 1013.8
20260902105306 65 182 0.0 0.0 0.00 0.07 0.07 91 1014.2
20260902104759 65 169 0.0 0.0 0.00 0.07 0.07 90 1013.9
20260902104255 65 187 0.0 0.0 0.00 0.07 0.07 90 1013.9
20260902103755 65 198 0.0 0.0 0.00 0.07 0.07 89 1014.2
20260902103255 65 185 0.0 1.0 0.00 0.07 0.07 89 1014.3
20260902102750 66 194 1.0 1.0 0.00 0.07 0.07 88 1014.2
20260902102248 65 219 2.0 2.0 0.00 0.07 0.07 88 1014.3
20260902101743 65 210 1.0 1.0 0.00 0.07 0.07 88 1014.2
20260902101238 65 214 1.0 1.0 0.00 0.07 0.07 89 1014.2
20260902100737 65 214 1.0 2.0 0.00 0.07 0.07 90 1014.0
20260902100231 65 214 0.0 0.0 0.00 0.07 0.07 90 1013.9
20260902095726 65 204 0.0 0.0 0.00 0.07 0.07 89 1014.0
20260902095220 65 214 0.0 0.0 0.00 0.07 0.07 89 1013.5
20260902094715 66 207 0.0 0.0 0.00 0.07 0.07 88 1013.3
20260902094211 66 141 2.0 5.0 0.00 0.07 0.07 88 1012.9
20260902093710 65 168 1.0 2.0 0.00 0.07 0.07 88 1012.9
20260902093206 65 185 1.0 1.0 0.00 0.07 0.07 89 1013.1
20260902092705 65 166 1.0 2.0 0.00 0.07 0.07 90 1012.8
20260902092201 65 138 1.0 5.0 0.00 0.07 0.07 91 1012.8
20260902091655 65 169 2.0 2.0 0.00 0.07 0.07 91 1013.0
20260902091152 65 195 0.0 0.0 0.00 0.07 0.07 90 1012.7
20260902090647 65 195 0.0 0.0 0.00 0.07 0.07 90 1012.3
20260902090147 65 196 0.0 0.0 0.00 0.07 0.07 89 1012.4
20260902085641 66 197 1.0 3.0 0.00 0.07 0.07 90 1012.5
20260902085142 65 166 1.0 1.0 0.00 0.07 0.07 90 1011.7
20260902084638 65 136 1.0 3.0 0.00 0.07 0.07 91 1011.4
20260902084134 65 65 3.0 5.0 0.00 0.07 0.07 91 1011.6
20260902083628 65 162 1.0 3.0 0.00 0.07 0.07 92 1011.7
20260902083128 65 74 2.0 3.0 0.00 0.07 0.07 92 1011.6
20260902082623 65 113 1.0 3.0 0.00 0.07 0.07 93 1011.9
20260902082120 65 133 1.0 2.0 0.00 0.07 0.07 93 1012.3
20260902081616 65 126 1.0 2.0 0.00 0.07 0.07 92 1012.5
20260902081116 65 133 1.0 1.0 0.00 0.07 0.07 92 1012.7
20260902080611 65 140 0.0 0.0 0.00 0.07 0.07 92 1013.3
20260902080108 65 140 0.0 2.0 0.00 0.07 0.07 92 1012.9
20260902075607 65 137 0.0 2.0 0.00 0.07 0.07 92 1012.8
20260902075103 65 174 0.0 1.0 0.00 0.07 0.07 91 1013.2
20260902074559 65 208 0.0 0.0 0.00 0.07 0.07 90 1013.4
20260902074054 65 211 0.0 1.0 0.00 0.07 0.07 90 1013.0
20260902073549 65 179 0.0 2.0 0.00 0.07 0.07 89 1012.8
20260902073046 65 166 1.0 1.0 0.07 0.07 0.07 89 1012.8
20260902072541 65 180 0.0 0.0 0.00 0.06 0.06 89 1012.6
20260902072038 65 176 0.0 3.0 0.05 0.06 0.06 89 1012.6
20260902071537 66 156 3.0 5.0 0.12 0.06 0.06 89 1013.2
20260902071033 67 142 2.0 3.0 0.12 0.05 0.05 88 1013.5
20260902070528 67 130 2.0 3.0 0.12 0.04 0.04 87 1014.1
20260902070023 68 176 1.0 3.0 0.07 0.03 0.03 86 1014.8
20260902065517 69 182 2.0 3.0 0.05 0.02 0.02 87 1015.0
20260902065012 69 213 2.0 6.0 0.05 0.02 0.02 88 1015.1
20260902064508 70 211 3.0 6.0 0.00 0.01 0.01 87 1015.4
20260902064004 70 214 2.0 7.0 0.07 0.01 0.01 88 1015.9
20260902063503 71 249 4.0 6.0 0.00 0.00 0.00 88 1015.9
20260902062959 71 231 3.0 3.0 0.00 0.00 0.00 87 1015.9
20260902062457 71 220 0.0 0.0 0.00 0.00 0.00 84 1015.1
20260902061952 71 220 0.0 0.0 0.00 0.00 0.00 83 1014.8
20260902061442 71 220 0.0 0.0 0.00 0.00 0.00 83 1014.7
20260902060938 71 220 0.0 0.0 0.00 0.00 0.00 84 1014.3
20260902060434 71 220 0.0 0.0 0.00 0.00 0.00 85 1013.8
20260902055930 71 218 0.0 0.0 0.00 0.00 0.00 85 1013.3
20260902055426 70 218 0.0 0.0 0.00 0.00 0.00 85 1013.1
20260902054921 70 239 1.0 2.0 0.00 0.00 0.00 86 1012.7
20260902054416 71 163 0.0 0.0 0.00 0.00 0.00 85 1012.5
20260902053911 71 163 0.0 0.0 0.00 0.00 0.00 85 1012.6
20260902053407 71 162 1.0 1.0 0.00 0.00 0.00 84 1013.1
20260902052905 71 181 0.0 0.0 0.00 0.00 0.00 83 1013.5
20260902052401 71 181 0.0 0.0 0.00 0.00 0.00 83 1013.4
20260902051855 71 185 0.0 0.0 0.00 0.00 0.00 83 1013.7
20260902051355 71 185 1.0 2.0 0.00 0.00 0.00 82 1014.1
20260902050850 71 216 0.0 0.0 0.00 0.00 0.00 83 1014.4
20260902050349 70 212 0.0 0.0 0.00 0.00 0.00 85 1014.4
20260902045844 70 182 0.0 0.0 0.00 0.00 0.00 86 1014.1
20260902045340 70 182 0.0 0.0 0.00 0.00 0.00 86 1014.0
20260902044836 70 181 0.0 0.0 0.00 0.00 0.00 86 1013.7
20260902044332 70 183 0.0 0.0 0.00 0.00 0.00 85 1013.4
20260902043832 70 183 0.0 0.0 0.00 0.00 0.00 86 1013.3
20260902043327 70 186 0.0 0.0 0.00 0.00 0.00 86 1013.4
20260902042827 70 217 1.0 1.0 0.00 0.00 0.00 86 1013.4
20260902042321 70 188 0.0 0.0 0.00 0.00 0.00 86 1013.1
20260902041817 70 183 0.0 0.0 0.00 0.00 0.00 86 1013.2
20260902041316 70 182 0.0 1.0 0.00 0.00 0.00 86 1012.9
20260902040815 70 200 0.0 0.0 0.00 0.00 0.00 85 1012.9
20260902040311 70 218 0.0 0.0 0.00 0.00 0.00 85 1013.3
20260902035809 70 218 0.0 1.0 0.00 0.00 0.00 85 1013.2
20260902035306 71 218 0.0 0.0 0.00 0.00 0.00 85 1013.1
20260902034804 71 218 0.0 0.0 0.00 0.00 0.00 85 1012.8
20260902034300 71 218 0.0 0.0 0.00 0.00 0.00 84 1012.8
20260902033757 71 218 0.0 0.0 0.00 0.00 0.00 84 1013.5
20260902033253 72 218 0.0 0.0 0.00 0.00 0.00 83 1013.3
20260902032751 72 218 0.0 0.0 0.00 0.00 0.00 83 1014.0
20260902032247 72 218 0.0 0.0 0.00 0.00 0.00 82 1013.9
20260902031746 72 218 0.0 0.0 0.00 0.00 0.00 82 1014.0
20260902031242 72 218 0.0 0.0 0.00 0.00 0.00 82 1014.0
20260902030737 72 218 0.0 0.0 0.00 0.00 0.00 82 1013.7
20260902030237 72 218 0.0 0.0 0.00 0.00 0.00 82 1013.7
20260902025736 72 218 0.0 0.0 0.00 0.00 0.00 83 1013.5
20260902025232 72 218 0.0 0.0 0.00 0.00 0.00 83 1013.5
20260902024727 72 218 0.0 0.0 0.00 0.00 0.00 83 1013.8
20260902024222 72 218 0.0 0.0 0.00 0.00 0.00 82 1013.7
20260902023718 72 218 0.0 0.0 0.00 0.00 0.00 82 1013.8
20260902023213 72 218 0.0 0.0 0.00 0.00 0.00 82 1013.5
20260902022712 73 218 0.0 0.0 0.00 0.00 0.00 82 1013.5
20260902022208 73 218 0.0 0.0 0.00 0.00 0.00 81 1013.4
20260902021703 73 218 0.0 0.0 0.00 0.00 0.00 80 1013.4
20260902021158 73 218 0.0 0.0 0.00 0.00 0.00 80 1013.5
20260902020654 73 218 0.0 0.0 0.00 0.00 0.00 79 1013.4
20260902020150 74 218 0.0 0.0 0.00 0.00 0.00 79 1013.5
20260902015645 74 218 0.0 0.0 0.00 0.00 0.00 79 1013.4
20260902015142 74 218 0.0 0.0 0.00 0.00 0.00 78 1013.7
20260902014637 74 218 0.0 0.0 0.00 0.00 0.00 78 1013.3
20260902014133 75 218 0.0 0.0 0.00 0.00 0.00 77 1013.1
20260902013632 75 218 0.0 0.0 0.00 0.00 0.00 77 1013.2
20260902013128 75 218 0.0 0.0 0.00 0.00 0.00 76 1013.2
20260902012623 75 218 0.0 0.0 0.00 0.00 0.00 75 1013.2
20260902012118 76 218 0.0 0.0 0.00 0.00 0.00 74 1013.1
20260902011614 76 218 0.0 0.0 0.00 0.00 0.00 73 1013.3
20260902011113 77 218 0.0 0.0 0.00 0.00 0.00 73 1013.3
20260902010613 77 218 0.0 0.0 0.00 0.00 0.00 72 1013.2
20260902010109 78 218 0.0 0.0 0.00 0.00 0.00 71 1012.9
20260902005606 78 218 0.0 0.0 0.00 0.00 0.00 70 1013.0
20260902005103 79 218 0.0 0.0 0.00 0.00 0.00 69 1013.1
20260902004602 79 218 0.0 0.0 0.00 0.00 0.00 68 1013.1
20260902004057 79 218 0.0 0.0 0.00 0.00 0.00 67 1013.0
20260902003553 80 218 0.0 0.0 0.00 0.00 0.00 67 1013.1
20260902003048 80 218 0.0 0.0 0.00 0.00 0.00 66 1013.1
20260902002543 80 218 0.0 0.0 0.00 0.00 0.00 66 1013.0
20260902002038 81 218 0.0 0.0 0.00 0.00 0.00 65 1013.1
20260902001533 81 218 0.0 0.0 0.00 0.00 0.00 64 1013.4
20260902001028 81 218 0.0 0.0 0.00 0.00 0.00 64 1013.2
20260902000523 81 218 0.0 0.0 0.00 0.00 0.00 63 1013.4
20260902000018 81 221 1.0 1.0 0.00 0.00 0.00 63 1013.5
20260901235512 82 218 0.0 0.0 0.00 0.00 0.00 62 1013.4
20260901235008 82 218 0.0 0.0 0.00 0.00 0.00 61 1013.2
20260901234507 82 218 0.0 1.0 0.00 0.00 0.00 61 1013.3
20260901234002 82 218 0.0 1.0 0.00 0.00 0.00 60 1013.4
20260901233457 82 218 1.0 1.0 0.00 0.00 0.00 59 1013.5
20260901232953 82 217 0.0 0.0 0.00 0.00 0.00 59 1013.3
20260901232448 82 217 0.0 0.0 0.00 0.00 0.00 59 1013.5
20260901231943 83 217 0.0 0.0 0.00 0.00 0.00 58 1013.4
20260901231439 82 217 0.0 1.0 0.00 0.00 0.00 58 1013.3
20260901230936 83 225 1.0 2.0 0.00 0.00 0.00 57 1013.5
20260901230435 83 212 1.0 2.0 0.00 0.00 0.00 57 1013.4
20260901225931 83 216 0.0 1.0 0.00 0.00 0.00 56 1013.3
20260901225430 83 218 1.0 2.0 0.00 0.00 0.00 56 1013.2
20260901224925 83 210 1.0 1.0 0.00 0.00 0.00 55 1013.2
20260901224421 84 211 0.0 0.0 0.00 0.00 0.00 55 1013.3
20260901223918 84 211 0.0 0.0 0.00 0.00 0.00 54 1013.1
20260901223413 84 237 1.0 2.0 0.00 0.00 0.00 54 1013.7
20260901222908 84 211 0.0 0.0 0.00 0.00 0.00 53 1013.3
20260901222405 84 222 0.0 2.0 0.00 0.00 0.00 53 1013.4
20260901221900 84 216 1.0 2.0 0.00 0.00 0.00 53 1013.4
20260901221355 84 209 1.0 3.0 0.00 0.00 0.00 52 1013.3
20260901220850 85 230 1.0 2.0 0.00 0.00 0.00 53 1013.3
20260901220349 84 234 2.0 3.0 0.00 0.00 0.00 53 1013.3
20260901215848 84 227 3.0 3.0 0.00 0.00 0.00 53 1013.4
20260901215347 84 224 2.0 3.0 0.00 0.00 0.00 54 1013.1
20260901214846 84 239 1.0 2.0 0.00 0.00 0.00 54 1013.2
20260901214345 84 226 3.0 5.0 0.00 0.00 0.00 54 1013.1
20260901213844 84 212 1.0 5.0 0.00 0.00 0.00 53 1013.4
20260901213339 85 207 3.0 3.0 0.00 0.00 0.00 53 1013.3
20260901212834 85 204 0.0 2.0 0.00 0.00 0.00 53 1013.2
20260901212330 84 211 2.0 5.0 0.00 0.00 0.00 54 1013.3
20260901211826 84 230 2.0 3.0 0.00 0.00 0.00 54 1013.2
20260901211322 84 264 4.0 5.0 0.00 0.00 0.00 54 1013.5
20260901210816 84 203 3.0 6.0 0.00 0.00 0.00 54 1013.4
20260901210313 85 209 0.0 1.0 0.00 0.00 0.00 55 1013.1
20260901205809 84 210 0.0 1.0 0.00 0.00 0.00 54 1013.2
20260901205308 85 210 1.0 2.0 0.00 0.00 0.00 53 1013.1
20260901204804 85 228 1.0 2.0 0.00 0.00 0.00 53 1013.2
20260901204300 85 211 2.0 3.0 0.00 0.00 0.00 52 1013.2
20260901203800 87 201 3.0 5.0 0.00 0.00 0.00 50 1013.3
20260901203259 88 218 1.0 2.0 0.00 0.00 0.00 50 1013.8
20260901202754 88 209 2.0 3.0 0.00 0.00 0.00 48 1013.5
20260901202249 86 226 1.0 5.0 0.00 0.00 0.00 50 1013.5
20260901201745 86 270 4.0 7.0 0.00 0.00 0.00 50 1013.9
20260901201244 86 237 5.0 6.0 0.00 0.00 0.00 51 1013.8
20260901200738 87 210 0.0 2.0 0.00 0.00 0.00 49 1013.4
20260901200234 87 222 2.0 2.0 0.00 0.00 0.00 49 1013.8
20260901195732 87 222 2.0 3.0 0.00 0.00 0.00 48 1013.8
20260901195226 86 218 0.0 1.0 0.00 0.00 0.00 48 1013.5
20260901194722 86 215 1.0 2.0 0.00 0.00 0.00 49 1013.8
20260901194216 87 209 3.0 6.0 0.00 0.00 0.00 47 1014.1
20260901193713 86 232 2.0 5.0 0.00 0.00 0.00 47 1014.1
20260901193206 86 220 0.0 1.0 0.00 0.00 0.00 48 1013.7
20260901192701 87 213 0.0 2.0 0.00 0.00 0.00 47 1013.9
20260901192156 87 266 1.0 2.0 0.00 0.00 0.00 47 1013.9
20260901191652 87 214 0.0 0.0 0.00 0.00 0.00 46 1014.0
20260901191148 86 216 1.0 5.0 0.00 0.00 0.00 46 1014.0
20260901190644 87 227 2.0 2.0 0.00 0.00 0.00 46 1014.0
20260901190143 87 218 1.0 3.0 0.00 0.00 0.00 46 1014.0
20260901185641 87 240 2.0 5.0 0.00 0.00 0.00 47 1013.8
20260901185139 87 239 2.0 2.0 0.00 0.00 0.00 47 1014.0
20260901184635 89 219 1.0 2.0 0.00 0.00 0.00 46 1013.9
20260901184125 90 204 1.0 2.0 0.00 0.00 0.00 44 1013.9
20260901183620 88 233 2.0 2.0 0.00 0.00 0.00 47 1013.7
20260901183115 87 200 0.0 2.0 0.00 0.00 0.00 50 1013.9
20260901182611 89 204 2.0 5.0 0.00 0.00 0.00 49 1014.0
20260901182110 88 95 0.0 0.0 0.00 0.00 0.00 48 1014.1
20260901181605 86 92 0.0 1.0 0.00 0.00 0.00 50 1014.1
20260901181104 86 85 2.0 3.0 0.00 0.00 0.00 49 1014.4
20260901180604 86 256 1.0 3.0 0.00 0.00 0.00 51 1014.5
20260901180058 86 236 2.0 2.0 0.00 0.00 0.00 51 1014.4
20260901175551 87 206 1.0 1.0 0.00 0.00 0.00 50 1014.6
20260901175045 87 200 1.0 3.0 0.00 0.00 0.00 49 1014.6
20260901174542 87 193 1.0 1.0 0.00 0.00 0.00 49 1014.6
20260901174038 87 215 2.0 3.0 0.00 0.00 0.00 51 1014.6
20260901173532 87 214 1.0 3.0 0.00 0.00 0.00 49 1014.6
20260901173028 87 216 1.0 3.0 0.00 0.00 0.00 50 1014.7